Zurück zum Katalog

STARLINK-31786

AktivKommunikationVLEO
NORAD 59771·PAYLOAD·🇺🇸 United States

Gestartet May 14, 2024 von Vandenberg Space Force Base

Loading…

Nächste Überflüge (nächste 24 Stunden)

TLE

AktuellSource: CelesTrak SupGP

Epoche: Sep 15, 2026, 03:32 UTC

1 59771C 24091U   26258.14770833 -.00054458  00000+0 -16089-2 0  2582
2 59771  53.1586 226.4213 0001356  88.9979  54.4881 15.34418370    11

Verfolge STARLINK-31786 in Echtzeit mit AllMySat

Download on the App Store